AJB501 SAME-SABE

Flight info

Callsign AJB501
Flight time 1h 49m
Altitude 25000
Route KAMUV1C KAMUV UT670 SNT SNT9R
Aircraft AT46/M-SDFGIRY/S

Departure

Time 2026-05-07 04:53
Airport Governor Francisco Gabrielli International Airport (SAME)

Arrival

Time 2026-05-07 06:42
Airport Aeroparque Jorge Newbery (SABE)
Time Latitude Longitude Altitude Speed Heading
2026-05-07 04:21 -32.82880 -68.79783 2345 ft 0 kts 270°
2026-05-07 04:41 -32.82880 -68.79774 2337 ft 2 kts 270°
2026-05-07 04:41 -32.82880 -68.79757 2337 ft 2 kts 271°
2026-05-07 04:41 -32.82880 -68.79740 2339 ft 2 kts 269°
2026-05-07 04:42 -32.82879 -68.79725 2340 ft 2 kts 259°
2026-05-07 04:42 -32.82877 -68.79716 2337 ft 1 kts 230°
2026-05-07 04:42 -32.82872 -68.79712 2337 ft 1 kts 203°
2026-05-07 04:42 -32.82866 -68.79710 2336 ft 1 kts 190°
2026-05-07 04:43 -32.82861 -68.79709 2339 ft 1 kts 185°
2026-05-07 04:43 -32.82859 -68.79709 2339 ft 0 kts 184°
2026-05-07 04:46 -32.82865 -68.79709 2336 ft 3 kts 184°
2026-05-07 04:46 -32.82897 -68.79711 2337 ft 6 kts 181°
2026-05-07 04:46 -32.82931 -68.79685 2338 ft 7 kts 105°
2026-05-07 04:47 -32.82937 -68.79620 2334 ft 9 kts 112°
2026-05-07 04:47 -32.82984 -68.79565 2333 ft 10 kts 141°
2026-05-07 04:47 -32.83044 -68.79517 2338 ft 11 kts 161°
2026-05-07 04:47 -32.83114 -68.79515 2337 ft 10 kts 181°
2026-05-07 04:48 -32.83182 -68.79514 2337 ft 10 kts 181°
2026-05-07 04:48 -32.83251 -68.79516 2334 ft 10 kts 181°
2026-05-07 04:48 -32.83321 -68.79518 2334 ft 10 kts 182°
2026-05-07 04:48 -32.83390 -68.79521 2336 ft 10 kts 179°
2026-05-07 04:49 -32.83491 -68.79521 2337 ft 19 kts 182°
2026-05-07 04:49 -32.83578 -68.79523 2332 ft 11 kts 180°
2026-05-07 04:49 -32.83655 -68.79524 2337 ft 11 kts 181°
2026-05-07 04:49 -32.83731 -68.79526 2336 ft 11 kts 180°
2026-05-07 04:50 -32.83804 -68.79528 2335 ft 10 kts 181°
2026-05-07 04:50 -32.83875 -68.79529 2336 ft 10 kts 180°
2026-05-07 04:50 -32.83946 -68.79530 2336 ft 10 kts 181°
2026-05-07 04:50 -32.84018 -68.79531 2335 ft 10 kts 173°
2026-05-07 04:51 -32.84050 -68.79471 2333 ft 10 kts 99°
2026-05-07 04:51 -32.84062 -68.79388 2335 ft 10 kts 99°
2026-05-07 04:51 -32.84056 -68.79313 2340 ft 8 kts 32°
2026-05-07 04:51 -32.84039 -68.79309 2339 ft 0 kts 358°
2026-05-07 04:52 -32.84037 -68.79309 2339 ft 0 kts 358°
2026-05-07 04:52 -32.83882 -68.79315 2335 ft 52 kts
2026-05-07 04:52 -32.83294 -68.79301 2334 ft 115 kts 359°
2026-05-07 04:52 -32.82357 -68.79284 2503 ft 144 kts 359°
2026-05-07 04:53 -32.81363 -68.79299 2985 ft 152 kts 359°
2026-05-07 04:53 -32.80217 -68.79323 3325 ft 168 kts
2026-05-07 04:53 -32.79106 -68.79321 3956 ft 156 kts
2026-05-07 04:53 -32.77957 -68.79332 4214 ft 170 kts
2026-05-07 04:54 -32.76768 -68.79257 4595 ft 172 kts 18°
2026-05-07 04:54 -32.75899 -68.78365 5006 ft 169 kts 69°
2026-05-07 04:54 -32.75806 -68.76981 5454 ft 170 kts 91°
2026-05-07 04:54 -32.75795 -68.75566 5903 ft 172 kts 87°
2026-05-07 04:55 -32.75701 -68.74137 6336 ft 175 kts 83°
2026-05-07 04:55 -32.75522 -68.72706 6734 ft 175 kts 82°
2026-05-07 04:55 -32.75696 -68.71276 7068 ft 179 kts 107°
2026-05-07 04:55 -32.76056 -68.69847 7452 ft 182 kts 104°
2026-05-07 04:56 -32.76364 -68.68378 7851 ft 184 kts 102°
2026-05-07 04:56 -32.76628 -68.66877 8223 ft 187 kts 100°
2026-05-07 04:56 -32.76873 -68.65349 8610 ft 189 kts 99°
2026-05-07 04:56 -32.77110 -68.63798 8976 ft 193 kts 99°
2026-05-07 04:57 -32.77339 -68.62238 9342 ft 195 kts 98°
2026-05-07 04:57 -32.77569 -68.60627 9740 ft 197 kts 98°
2026-05-07 04:57 -32.77793 -68.59028 10055 ft 200 kts 98°
2026-05-07 04:57 -32.78031 -68.57399 10416 ft 200 kts 98°
2026-05-07 04:58 -32.78273 -68.55766 10765 ft 202 kts 98°
2026-05-07 04:58 -32.78521 -68.54120 11105 ft 203 kts 99°
2026-05-07 04:58 -32.78774 -68.52464 11468 ft 204 kts 98°
2026-05-07 04:58 -32.79027 -68.50802 11813 ft 205 kts 99°
2026-05-07 04:59 -32.79282 -68.49124 12154 ft 207 kts 99°
2026-05-07 04:59 -32.79536 -68.47439 12497 ft 208 kts 99°
2026-05-07 04:59 -32.79794 -68.45742 12845 ft 209 kts 99°
2026-05-07 04:59 -32.80051 -68.44038 13188 ft 210 kts 99°
2026-05-07 05:00 -32.80309 -68.42324 13525 ft 211 kts 99°
2026-05-07 05:00 -32.80569 -68.40599 13838 ft 213 kts 99°
2026-05-07 05:00 -32.80829 -68.38861 14120 ft 214 kts 99°
2026-05-07 05:00 -32.81092 -68.37113 14403 ft 216 kts 99°
2026-05-07 05:01 -32.81356 -68.35354 14674 ft 217 kts 99°
2026-05-07 05:01 -32.81621 -68.33577 14944 ft 219 kts 98°
2026-05-07 05:01 -32.81887 -68.31787 15201 ft 221 kts 98°
2026-05-07 05:01 -32.82155 -68.29986 15478 ft 222 kts 98°
2026-05-07 05:02 -32.82426 -68.28168 15749 ft 224 kts 98°
2026-05-07 05:02 -32.82700 -68.26339 16014 ft 226 kts 98°
2026-05-07 05:02 -32.82975 -68.24490 16269 ft 228 kts 98°
2026-05-07 05:02 -32.83252 -68.22631 16521 ft 230 kts 98°
2026-05-07 05:03 -32.83532 -68.20753 16762 ft 232 kts 98°
2026-05-07 05:03 -32.83814 -68.18858 16995 ft 234 kts 98°
2026-05-07 05:03 -32.84098 -68.16950 17224 ft 235 kts 98°
2026-05-07 05:03 -32.84383 -68.15023 17450 ft 237 kts 98°
2026-05-07 05:04 -32.84670 -68.13082 17688 ft 239 kts 98°
2026-05-07 05:04 -32.84960 -68.11123 17925 ft 241 kts 98°
2026-05-07 05:04 -32.85253 -68.09147 18155 ft 243 kts 98°
2026-05-07 05:04 -32.85544 -68.07164 18370 ft 245 kts 98°
2026-05-07 05:05 -32.85840 -68.05163 18570 ft 246 kts 98°
2026-05-07 05:05 -32.86134 -68.03160 18769 ft 247 kts 98°
2026-05-07 05:05 -32.86432 -68.01141 18969 ft 248 kts 98°
2026-05-07 05:05 -32.86729 -67.99114 19156 ft 249 kts 97°
2026-05-07 05:06 -32.87026 -67.97082 19338 ft 250 kts 97°
2026-05-07 05:06 -32.87323 -67.95064 19517 ft 251 kts 97°
2026-05-07 05:06 -32.87623 -67.93009 19698 ft 252 kts 97°
2026-05-07 05:06 -32.87922 -67.90950 19874 ft 254 kts 97°
2026-05-07 05:07 -32.88224 -67.88881 20062 ft 255 kts 97°
2026-05-07 05:07 -32.88529 -67.86798 20261 ft 256 kts 98°
2026-05-07 05:07 -32.88834 -67.84703 20448 ft 257 kts 97°
2026-05-07 05:07 -32.89139 -67.82598 20625 ft 259 kts 97°
2026-05-07 05:08 -32.89445 -67.80484 20809 ft 260 kts 97°
2026-05-07 05:08 -32.89754 -67.78357 20980 ft 261 kts 97°
2026-05-07 05:08 -32.90061 -67.76227 21150 ft 262 kts 97°
2026-05-07 05:08 -32.90369 -67.74081 21322 ft 263 kts 97°
2026-05-07 05:09 -32.90677 -67.71937 21476 ft 264 kts 97°
2026-05-07 05:09 -32.91010 -67.69781 21626 ft 265 kts 99°
2026-05-07 05:09 -32.91409 -67.67630 21770 ft 267 kts 101°
2026-05-07 05:09 -32.91851 -67.65483 21922 ft 268 kts 102°
2026-05-07 05:10 -32.92296 -67.63328 22068 ft 268 kts 101°
2026-05-07 05:10 -32.92739 -67.61170 22202 ft 269 kts 101°
2026-05-07 05:10 -32.93025 -67.59728 22299 ft 270 kts 101°
2026-05-07 05:10 -32.93590 -67.56811 22525 ft 271 kts 100°
2026-05-07 05:11 -32.93869 -67.55361 22634 ft 271 kts 100°
2026-05-07 05:11 -32.94291 -67.53173 22792 ft 272 kts 100°
2026-05-07 05:11 -32.94718 -67.50973 22950 ft 273 kts 100°
2026-05-07 05:11 -32.95145 -67.48772 23105 ft 273 kts 100°
2026-05-07 05:12 -32.95575 -67.46562 23249 ft 274 kts 100°
2026-05-07 05:12 -32.96006 -67.44349 23387 ft 275 kts 100°
2026-05-07 05:12 -32.96438 -67.42128 23501 ft 276 kts 100°
2026-05-07 05:12 -32.96864 -67.39900 23612 ft 277 kts 99°
2026-05-07 05:13 -32.97285 -67.37659 23716 ft 277 kts 99°
2026-05-07 05:13 -32.97705 -67.35413 23816 ft 278 kts 99°
2026-05-07 05:13 -32.98134 -67.33161 23909 ft 279 kts 99°
2026-05-07 05:13 -32.98566 -67.30906 24004 ft 280 kts 99°
2026-05-07 05:14 -32.99001 -67.28640 24090 ft 281 kts 99°
2026-05-07 05:14 -32.99435 -67.26371 24173 ft 282 kts 99°
2026-05-07 05:14 -32.99871 -67.24094 24246 ft 283 kts 99°
2026-05-07 05:14 -33.00309 -67.21806 24330 ft 283 kts 99°
2026-05-07 05:15 -33.00747 -67.19516 24431 ft 284 kts 99°
2026-05-07 05:15 -33.01188 -67.17210 24541 ft 286 kts 98°
2026-05-07 05:15 -33.01625 -67.14904 24669 ft 286 kts 98°
2026-05-07 05:15 -33.02065 -67.12588 24766 ft 288 kts 98°
2026-05-07 05:16 -33.02512 -67.10242 24803 ft 292 kts 99°
2026-05-07 05:16 -33.02965 -67.07865 24826 ft 297 kts 99°
2026-05-07 05:16 -33.03428 -67.05441 24835 ft 303 kts 99°
2026-05-07 05:16 -33.03899 -67.02962 24842 ft 309 kts 99°
2026-05-07 05:17 -33.04384 -67.00442 24845 ft 315 kts 99°
2026-05-07 05:17 -33.04867 -66.97876 24847 ft 320 kts 99°
2026-05-07 05:17 -33.05364 -66.95268 24853 ft 324 kts 99°
2026-05-07 05:17 -33.05864 -66.92635 24854 ft 328 kts 98°
2026-05-07 05:18 -33.06365 -66.89973 24848 ft 331 kts 98°
2026-05-07 05:18 -33.06863 -66.87286 24858 ft 333 kts 98°
2026-05-07 05:18 -33.07373 -66.84579 24852 ft 335 kts 98°
2026-05-07 05:18 -33.07871 -66.81859 24853 ft 337 kts 98°
2026-05-07 05:19 -33.08396 -66.79164 24858 ft 339 kts 100°
2026-05-07 05:19 -33.08933 -66.76427 24855 ft 340 kts 99°
2026-05-07 05:19 -33.09454 -66.73676 24857 ft 341 kts 98°
2026-05-07 05:19 -33.09976 -66.70875 24859 ft 341 kts 99°
2026-05-07 05:20 -33.10489 -66.68151 24866 ft 342 kts 98°
2026-05-07 05:20 -33.11010 -66.65377 24871 ft 343 kts 98°
2026-05-07 05:20 -33.11532 -66.62603 24875 ft 343 kts 98°
2026-05-07 05:20 -33.12059 -66.59787 24882 ft 344 kts 98°
2026-05-07 05:21 -33.12576 -66.57041 24887 ft 344 kts 98°
2026-05-07 05:21 -33.13622 -66.51460 24895 ft 345 kts 98°
2026-05-07 05:21 -33.14147 -66.48659 24902 ft 346 kts 98°
2026-05-07 05:22 -33.14668 -66.45860 24901 ft 347 kts 98°
2026-05-07 05:22 -33.15189 -66.43050 24904 ft 347 kts 98°
2026-05-07 05:22 -33.15713 -66.40231 24909 ft 348 kts 98°
2026-05-07 05:22 -33.16237 -66.37411 24908 ft 348 kts 98°
2026-05-07 05:23 -33.16761 -66.34589 24910 ft 349 kts 98°
2026-05-07 05:23 -33.17286 -66.31759 24909 ft 349 kts 98°
2026-05-07 05:23 -33.17811 -66.28927 24909 ft 350 kts 98°
2026-05-07 05:23 -33.18335 -66.26090 24907 ft 350 kts 98°
2026-05-07 05:24 -33.18858 -66.23250 24901 ft 350 kts 97°
2026-05-07 05:24 -33.19379 -66.20419 24875 ft 349 kts 97°
2026-05-07 05:24 -33.19898 -66.17597 24876 ft 348 kts 97°
2026-05-07 05:24 -33.20422 -66.14776 24892 ft 347 kts 97°
2026-05-07 05:25 -33.20940 -66.11958 24902 ft 348 kts 97°
2026-05-07 05:25 -33.21456 -66.09134 24901 ft 348 kts 97°
2026-05-07 05:25 -33.21972 -66.06304 24898 ft 349 kts 97°
2026-05-07 05:25 -33.22491 -66.03469 24901 ft 350 kts 97°
2026-05-07 05:26 -33.23009 -66.00631 24900 ft 350 kts 97°
2026-05-07 05:26 -33.23529 -65.97788 24896 ft 351 kts 97°
2026-05-07 05:26 -33.24044 -65.94978 24893 ft 351 kts 97°
2026-05-07 05:26 -33.24564 -65.92128 24893 ft 351 kts 97°
2026-05-07 05:27 -33.25080 -65.89278 24893 ft 351 kts 97°
2026-05-07 05:27 -33.25597 -65.86424 24892 ft 352 kts 97°
2026-05-07 05:27 -33.26116 -65.83566 24891 ft 353 kts 97°
2026-05-07 05:27 -33.26637 -65.80700 24891 ft 353 kts 97°
2026-05-07 05:28 -33.27154 -65.77835 24895 ft 353 kts 97°
2026-05-07 05:28 -33.27673 -65.74971 24887 ft 353 kts 97°
2026-05-07 05:28 -33.28191 -65.72101 24894 ft 353 kts 97°
2026-05-07 05:28 -33.28706 -65.69234 24887 ft 353 kts 97°
2026-05-07 05:29 -33.29221 -65.66369 24893 ft 353 kts 96°
2026-05-07 05:29 -33.29738 -65.63494 24891 ft 354 kts 96°
2026-05-07 05:29 -33.30254 -65.60618 24893 ft 354 kts 97°
2026-05-07 05:29 -33.30769 -65.57742 24892 ft 354 kts 97°
2026-05-07 05:30 -33.31285 -65.54866 24884 ft 354 kts 97°
2026-05-07 05:30 -33.31800 -65.51980 24888 ft 355 kts 97°
2026-05-07 05:30 -33.32316 -65.49099 24887 ft 355 kts 97°
2026-05-07 05:30 -33.32828 -65.46211 24888 ft 355 kts 96°
2026-05-07 05:31 -33.33343 -65.43323 24889 ft 355 kts 96°
2026-05-07 05:31 -33.33854 -65.40440 24882 ft 354 kts 96°
2026-05-07 05:31 -33.34367 -65.37559 24884 ft 354 kts 96°
2026-05-07 05:31 -33.34874 -65.34679 24884 ft 354 kts 96°
2026-05-07 05:32 -33.35384 -65.31798 24878 ft 354 kts 96°
2026-05-07 05:32 -33.35895 -65.28912 24878 ft 354 kts 96°
2026-05-07 05:32 -33.36401 -65.26033 24876 ft 354 kts 96°
2026-05-07 05:32 -33.36909 -65.23148 24878 ft 354 kts 96°
2026-05-07 05:33 -33.37415 -65.20267 24880 ft 354 kts 96°
2026-05-07 05:33 -33.37921 -65.17386 24874 ft 354 kts 96°
2026-05-07 05:33 -33.38427 -65.14508 24870 ft 353 kts 96°
2026-05-07 05:33 -33.38931 -65.11631 24878 ft 354 kts 96°
2026-05-07 05:34 -33.39435 -65.08752 24869 ft 353 kts 96°
2026-05-07 05:34 -33.39938 -65.05876 24868 ft 353 kts 96°
2026-05-07 05:34 -33.40439 -65.03002 24868 ft 353 kts 96°
2026-05-07 05:34 -33.40932 -65.00171 24868 ft 352 kts 96°
2026-05-07 05:35 -33.41432 -64.97297 24865 ft 352 kts 96°
2026-05-07 05:35 -33.41931 -64.94431 24862 ft 352 kts 96°
2026-05-07 05:35 -33.42434 -64.91526 24864 ft 352 kts 96°
2026-05-07 05:35 -33.42930 -64.88663 24857 ft 351 kts 95°
2026-05-07 05:36 -33.43419 -64.85835 24860 ft 351 kts 95°
2026-05-07 05:36 -33.43912 -64.82978 24859 ft 351 kts 95°
2026-05-07 05:36 -33.44405 -64.80120 24853 ft 350 kts 95°
2026-05-07 05:36 -33.44898 -64.77260 24855 ft 350 kts 95°
2026-05-07 05:37 -33.45389 -64.74408 24853 ft 350 kts 95°
2026-05-07 05:37 -33.45876 -64.71558 24848 ft 349 kts 95°
2026-05-07 05:37 -33.46366 -64.68707 24851 ft 349 kts 95°
2026-05-07 05:37 -33.46846 -64.65861 24844 ft 349 kts 94°
2026-05-07 05:38 -33.47326 -64.63009 24841 ft 349 kts 95°
2026-05-07 05:38 -33.47809 -64.60164 24843 ft 349 kts 94°
2026-05-07 05:38 -33.48282 -64.57320 24839 ft 348 kts 94°
2026-05-07 05:38 -33.48755 -64.54478 24837 ft 348 kts 94°
2026-05-07 05:39 -33.49244 -64.51634 24838 ft 348 kts 95°
2026-05-07 05:39 -33.49738 -64.48792 24836 ft 348 kts 94°
2026-05-07 05:39 -33.50218 -64.45953 24833 ft 348 kts 94°
2026-05-07 05:39 -33.50686 -64.43109 24834 ft 347 kts 94°
2026-05-07 05:40 -33.51144 -64.40268 24832 ft 347 kts 94°
2026-05-07 05:40 -33.51602 -64.37429 24831 ft 347 kts 94°
2026-05-07 05:40 -33.52053 -64.34591 24823 ft 347 kts 93°
2026-05-07 05:40 -33.52505 -64.31752 24827 ft 347 kts 93°
2026-05-07 05:41 -33.52965 -64.28915 24827 ft 347 kts 93°
2026-05-07 05:41 -33.53411 -64.26070 24824 ft 347 kts 93°
2026-05-07 05:41 -33.53845 -64.23231 24819 ft 346 kts 92°
2026-05-07 05:41 -33.54270 -64.20390 24822 ft 346 kts 92°
2026-05-07 05:42 -33.54712 -64.17554 24817 ft 347 kts 93°
2026-05-07 05:42 -33.55164 -64.14718 24815 ft 347 kts 93°
2026-05-07 05:42 -33.55614 -64.11884 24816 ft 347 kts 93°
2026-05-07 05:42 -33.56058 -64.09076 24818 ft 347 kts 93°
2026-05-07 05:43 -33.56508 -64.06237 24815 ft 347 kts 93°
2026-05-07 05:43 -33.56956 -64.03398 24813 ft 347 kts 93°
2026-05-07 05:43 -33.57404 -64.00555 24811 ft 347 kts 93°
2026-05-07 05:43 -33.57852 -63.97710 24809 ft 347 kts 93°
2026-05-07 05:44 -33.58299 -63.94867 24809 ft 347 kts 93°
2026-05-07 05:44 -33.58745 -63.92020 24807 ft 347 kts 93°
2026-05-07 05:44 -33.59191 -63.89177 24806 ft 347 kts 93°
2026-05-07 05:44 -33.59636 -63.86338 24807 ft 347 kts 93°
2026-05-07 05:45 -33.60080 -63.83496 24803 ft 347 kts 93°
2026-05-07 05:45 -33.60523 -63.80649 24800 ft 347 kts 93°
2026-05-07 05:45 -33.60971 -63.77805 24801 ft 347 kts 93°
2026-05-07 05:45 -33.61412 -63.74965 24802 ft 347 kts 93°
2026-05-07 05:46 -33.61852 -63.72122 24800 ft 346 kts 93°
2026-05-07 05:46 -33.62295 -63.69281 24795 ft 346 kts 93°
2026-05-07 05:46 -33.62734 -63.66439 24793 ft 346 kts 92°
2026-05-07 05:46 -33.63174 -63.63598 24794 ft 346 kts 93°
2026-05-07 05:47 -33.63609 -63.60763 24794 ft 346 kts 93°
2026-05-07 05:47 -33.64049 -63.57920 24794 ft 346 kts 93°
2026-05-07 05:47 -33.64484 -63.55088 24789 ft 346 kts 93°
2026-05-07 05:47 -33.64919 -63.52251 24789 ft 346 kts 93°
2026-05-07 05:48 -33.65354 -63.49414 24786 ft 346 kts 93°
2026-05-07 05:48 -33.65789 -63.46575 24785 ft 345 kts 93°
2026-05-07 05:48 -33.66223 -63.43738 24786 ft 345 kts 93°
2026-05-07 05:48 -33.66655 -63.40904 24788 ft 345 kts 93°
2026-05-07 05:49 -33.67086 -63.38078 24781 ft 345 kts 93°
2026-05-07 05:49 -33.67517 -63.35245 24778 ft 345 kts 93°
2026-05-07 05:49 -33.67948 -63.32413 24777 ft 345 kts 93°
2026-05-07 05:49 -33.68378 -63.29584 24779 ft 344 kts 93°
2026-05-07 05:50 -33.68805 -63.26756 24776 ft 344 kts 93°
2026-05-07 05:50 -33.69232 -63.23931 24773 ft 344 kts 93°
2026-05-07 05:50 -33.69659 -63.21103 24772 ft 344 kts 93°
2026-05-07 05:50 -33.70084 -63.18282 24771 ft 344 kts 93°
2026-05-07 05:51 -33.70503 -63.15496 24769 ft 344 kts 93°
2026-05-07 05:51 -33.70927 -63.12671 24769 ft 343 kts 93°
2026-05-07 05:51 -33.71341 -63.09849 24765 ft 343 kts 93°
2026-05-07 05:51 -33.71761 -63.07026 24765 ft 343 kts 93°
2026-05-07 05:52 -33.72186 -63.04202 24763 ft 343 kts 93°
2026-05-07 05:52 -33.72602 -63.01382 24760 ft 343 kts 92°
2026-05-07 05:52 -33.73041 -62.98567 24759 ft 344 kts 94°
2026-05-07 05:52 -33.73489 -62.95750 24758 ft 343 kts 93°
2026-05-07 05:53 -33.73918 -62.92929 24756 ft 343 kts 93°
2026-05-07 05:53 -33.74350 -62.90113 24753 ft 343 kts 93°
2026-05-07 05:53 -33.74786 -62.87292 24753 ft 343 kts 93°
2026-05-07 05:53 -33.75216 -62.84471 24754 ft 343 kts 93°
2026-05-07 05:54 -33.75648 -62.81654 24753 ft 343 kts 93°
2026-05-07 05:54 -33.76075 -62.78838 24744 ft 343 kts 93°
2026-05-07 05:54 -33.76504 -62.76024 24750 ft 343 kts 93°
2026-05-07 05:54 -33.76923 -62.73198 24745 ft 343 kts 93°
2026-05-07 05:55 -33.77351 -62.70381 24747 ft 343 kts 93°
2026-05-07 05:55 -33.77772 -62.67562 24736 ft 342 kts 92°
2026-05-07 05:55 -33.78181 -62.64749 24744 ft 342 kts 92°
2026-05-07 05:55 -33.78601 -62.61930 24739 ft 343 kts 94°
2026-05-07 05:56 -33.79065 -62.59121 24739 ft 343 kts 94°
2026-05-07 05:56 -33.79524 -62.56308 24737 ft 343 kts 94°
2026-05-07 05:56 -33.79965 -62.53494 24736 ft 342 kts 93°
2026-05-07 05:56 -33.80391 -62.50675 24734 ft 342 kts 93°
2026-05-07 05:57 -33.80813 -62.47863 24735 ft 342 kts 93°
2026-05-07 05:57 -33.81234 -62.45049 24733 ft 342 kts 93°
2026-05-07 05:57 -33.81652 -62.42231 24733 ft 342 kts 93°
2026-05-07 05:57 -33.82069 -62.39419 24735 ft 342 kts 93°
2026-05-07 05:58 -33.82347 -62.37549 24730 ft 342 kts 93°
2026-05-07 05:58 -33.82902 -62.33819 24727 ft 342 kts 93°
2026-05-07 05:58 -33.83320 -62.31004 24727 ft 342 kts 93°
2026-05-07 05:58 -33.83738 -62.28186 24725 ft 342 kts 93°
2026-05-07 05:59 -33.84153 -62.25367 24724 ft 342 kts 93°
2026-05-07 05:59 -33.84567 -62.22550 24720 ft 342 kts 93°
2026-05-07 05:59 -33.84982 -62.19731 24720 ft 342 kts 92°
2026-05-07 05:59 -33.85396 -62.16915 24722 ft 342 kts 92°
2026-05-07 06:00 -33.85673 -62.15006 24717 ft 342 kts 92°
2026-05-07 06:00 -33.86081 -62.12228 24718 ft 342 kts 92°
2026-05-07 06:00 -33.86491 -62.09412 24718 ft 342 kts 92°
2026-05-07 06:00 -33.86897 -62.06597 24716 ft 342 kts 92°
2026-05-07 06:01 -33.87312 -62.03782 24714 ft 342 kts 92°
2026-05-07 06:01 -33.87722 -62.00961 24713 ft 342 kts 92°
2026-05-07 06:01 -33.88117 -61.98146 24711 ft 341 kts 92°
2026-05-07 06:01 -33.88505 -61.95329 24711 ft 341 kts 91°
2026-05-07 06:02 -33.88890 -61.92509 24708 ft 341 kts 92°
2026-05-07 06:02 -33.89295 -61.89696 24708 ft 341 kts 92°
2026-05-07 06:02 -33.89700 -61.86884 24707 ft 341 kts 92°
2026-05-07 06:02 -33.90106 -61.84067 24706 ft 341 kts 92°
2026-05-07 06:03 -33.90503 -61.81254 24707 ft 341 kts 92°
2026-05-07 06:03 -33.90903 -61.78439 24707 ft 341 kts 92°
2026-05-07 06:03 -33.91306 -61.75622 24706 ft 341 kts 92°
2026-05-07 06:03 -33.91701 -61.72809 24701 ft 341 kts 91°
2026-05-07 06:04 -33.92086 -61.69996 24705 ft 340 kts 91°
2026-05-07 06:04 -33.92504 -61.67185 24703 ft 342 kts 93°
2026-05-07 06:04 -33.92936 -61.64370 24701 ft 341 kts 92°
2026-05-07 06:04 -33.93357 -61.61556 24708 ft 341 kts 92°
2026-05-07 06:05 -33.93759 -61.58744 24704 ft 341 kts 91°
2026-05-07 06:05 -33.94151 -61.55930 24699 ft 341 kts 91°
2026-05-07 06:05 -33.94541 -61.53108 24696 ft 341 kts 91°
2026-05-07 06:05 -33.94925 -61.50293 24699 ft 341 kts 91°
2026-05-07 06:06 -33.95298 -61.47472 24699 ft 341 kts 91°
2026-05-07 06:06 -33.95691 -61.44653 24695 ft 341 kts 91°
2026-05-07 06:06 -33.96072 -61.41834 24696 ft 341 kts 91°
2026-05-07 06:06 -33.96446 -61.39012 24693 ft 341 kts 91°
2026-05-07 06:07 -33.96869 -61.36192 24696 ft 343 kts 93°
2026-05-07 06:07 -33.97301 -61.33375 24696 ft 342 kts 92°
2026-05-07 06:07 -33.97719 -61.30548 24693 ft 342 kts 92°
2026-05-07 06:07 -33.98120 -61.27761 24696 ft 342 kts 91°
2026-05-07 06:08 -33.98508 -61.24939 24693 ft 342 kts 91°
2026-05-07 06:08 -33.98883 -61.22116 24695 ft 342 kts 91°
2026-05-07 06:08 -33.99252 -61.19290 24693 ft 341 kts 91°
2026-05-07 06:08 -33.99627 -61.16459 24692 ft 342 kts 91°
2026-05-07 06:09 -34.00018 -61.13631 24693 ft 342 kts 92°
2026-05-07 06:09 -34.00404 -61.10801 24691 ft 342 kts 92°
2026-05-07 06:09 -34.00797 -61.07965 24691 ft 343 kts 92°
2026-05-07 06:09 -34.01185 -61.05135 24690 ft 343 kts 92°
2026-05-07 06:10 -34.01572 -61.02303 24690 ft 343 kts 92°
2026-05-07 06:10 -34.01960 -60.99464 24688 ft 343 kts 92°
2026-05-07 06:10 -34.02347 -60.96627 24689 ft 343 kts 92°
2026-05-07 06:10 -34.02733 -60.93790 24688 ft 343 kts 92°
2026-05-07 06:11 -34.03119 -60.90950 24684 ft 344 kts 92°
2026-05-07 06:11 -34.03506 -60.88102 24681 ft 344 kts 92°
2026-05-07 06:11 -34.03891 -60.85257 24685 ft 344 kts 92°
2026-05-07 06:11 -34.04274 -60.82413 24686 ft 344 kts 92°
2026-05-07 06:12 -34.04659 -60.79568 24684 ft 344 kts 92°
2026-05-07 06:12 -34.05042 -60.76716 24685 ft 344 kts 92°
2026-05-07 06:12 -34.05425 -60.73869 24683 ft 344 kts 92°
2026-05-07 06:12 -34.05807 -60.71022 24685 ft 344 kts 92°
2026-05-07 06:13 -34.06189 -60.68172 24681 ft 344 kts 92°
2026-05-07 06:13 -34.06570 -60.65316 24682 ft 344 kts 92°
2026-05-07 06:13 -34.06946 -60.62504 24682 ft 345 kts 92°
2026-05-07 06:13 -34.07326 -60.59651 24681 ft 345 kts 92°
2026-05-07 06:14 -34.07704 -60.56799 24676 ft 345 kts 92°
2026-05-07 06:14 -34.08083 -60.53947 24676 ft 345 kts 92°
2026-05-07 06:14 -34.08460 -60.51089 24675 ft 345 kts 92°
2026-05-07 06:14 -34.08838 -60.48234 24676 ft 345 kts 92°
2026-05-07 06:15 -34.09215 -60.45373 24668 ft 345 kts 92°
2026-05-07 06:15 -34.09594 -60.42508 24667 ft 345 kts 92°
2026-05-07 06:15 -34.09969 -60.39648 24669 ft 345 kts 92°
2026-05-07 06:15 -34.10345 -60.36786 24668 ft 346 kts 92°
2026-05-07 06:16 -34.10721 -60.33924 24664 ft 346 kts 92°
2026-05-07 06:16 -34.11095 -60.31061 24664 ft 346 kts 92°
2026-05-07 06:16 -34.11468 -60.28195 24664 ft 345 kts 92°
2026-05-07 06:16 -34.11841 -60.25330 24668 ft 346 kts 92°
2026-05-07 06:17 -34.12213 -60.22468 24662 ft 346 kts 92°
2026-05-07 06:17 -34.12585 -60.19599 24660 ft 346 kts 92°
2026-05-07 06:17 -34.12956 -60.16735 24663 ft 346 kts 92°
2026-05-07 06:17 -34.13327 -60.13868 24661 ft 346 kts 92°
2026-05-07 06:18 -34.13697 -60.11008 24656 ft 346 kts 92°
2026-05-07 06:18 -34.14067 -60.08137 24655 ft 346 kts 92°
2026-05-07 06:18 -34.14436 -60.05272 24660 ft 345 kts 92°
2026-05-07 06:18 -34.14803 -60.02408 24652 ft 345 kts 91°
2026-05-07 06:19 -34.15169 -59.99540 24649 ft 345 kts 92°
2026-05-07 06:19 -34.15535 -59.96680 24650 ft 345 kts 92°
2026-05-07 06:19 -34.15901 -59.93817 24653 ft 345 kts 92°
2026-05-07 06:19 -34.16266 -59.90950 24651 ft 345 kts 92°
2026-05-07 06:20 -34.16629 -59.88091 24646 ft 345 kts 92°
2026-05-07 06:20 -34.16993 -59.85226 24649 ft 345 kts 92°
2026-05-07 06:20 -34.17354 -59.82374 24650 ft 344 kts 92°
2026-05-07 06:20 -34.17715 -59.79515 24640 ft 344 kts 92°
2026-05-07 06:21 -34.18077 -59.76659 24641 ft 344 kts 92°
2026-05-07 06:21 -34.18436 -59.73804 24640 ft 344 kts 92°
2026-05-07 06:21 -34.18793 -59.70986 24644 ft 344 kts 92°
2026-05-07 06:21 -34.19149 -59.68134 24639 ft 344 kts 92°
2026-05-07 06:22 -34.19508 -59.65290 24640 ft 343 kts 91°
2026-05-07 06:22 -34.20217 -59.59590 24640 ft 343 kts 92°
2026-05-07 06:22 -34.20570 -59.56746 24638 ft 343 kts 91°
2026-05-07 06:23 -34.20914 -59.53893 24636 ft 342 kts 91°
2026-05-07 06:23 -34.21269 -59.51052 24635 ft 343 kts 92°
2026-05-07 06:23 -34.21617 -59.48206 24633 ft 342 kts 91°
2026-05-07 06:23 -34.21951 -59.45359 24630 ft 342 kts 91°
2026-05-07 06:24 -34.22548 -59.42574 24628 ft 348 kts 111°
2026-05-07 06:24 -34.23693 -59.39976 24627 ft 352 kts 119°
2026-05-07 06:24 -34.24942 -59.37428 24625 ft 352 kts 118°
2026-05-07 06:24 -34.26117 -59.34837 24625 ft 351 kts 114°
2026-05-07 06:25 -34.27188 -59.32190 24624 ft 351 kts 112°
2026-05-07 06:25 -34.28251 -59.29488 24279 ft 364 kts 112°
2026-05-07 06:25 -34.29373 -59.26673 23781 ft 380 kts 114°
2026-05-07 06:25 -34.30569 -59.23812 23273 ft 381 kts 115°
2026-05-07 06:26 -34.31783 -59.20963 22686 ft 381 kts 115°
2026-05-07 06:26 -34.32959 -59.18143 22103 ft 380 kts 114°
2026-05-07 06:26 -34.34129 -59.15286 21527 ft 379 kts 114°
2026-05-07 06:26 -34.35315 -59.12394 20956 ft 378 kts 114°
2026-05-07 06:27 -34.36466 -59.09591 20412 ft 376 kts 114°
2026-05-07 06:27 -34.37626 -59.06760 19875 ft 375 kts 114°
2026-05-07 06:27 -34.38784 -59.03933 19345 ft 374 kts 114°
2026-05-07 06:27 -34.39935 -59.01118 18837 ft 373 kts 114°
2026-05-07 06:28 -34.41082 -58.98313 18332 ft 371 kts 114°
2026-05-07 06:28 -34.42224 -58.95518 17825 ft 370 kts 114°
2026-05-07 06:28 -34.43358 -58.92735 17264 ft 367 kts 114°
2026-05-07 06:28 -34.44488 -58.89968 16716 ft 365 kts 114°
2026-05-07 06:29 -34.45606 -58.87224 16184 ft 362 kts 114°
2026-05-07 06:29 -34.46718 -58.84500 15664 ft 359 kts 114°
2026-05-07 06:29 -34.47814 -58.81805 15152 ft 355 kts 114°
2026-05-07 06:29 -34.48900 -58.79138 14659 ft 351 kts 114°
2026-05-07 06:30 -34.49975 -58.76492 14177 ft 348 kts 114°
2026-05-07 06:30 -34.51039 -58.73870 13707 ft 344 kts 115°
2026-05-07 06:30 -34.52093 -58.71277 13161 ft 341 kts 115°
2026-05-07 06:30 -34.53133 -58.68711 12647 ft 337 kts 115°
2026-05-07 06:31 -34.54161 -58.66174 12141 ft 334 kts 115°
2026-05-07 06:31 -34.55180 -58.63659 11654 ft 330 kts 116°
2026-05-07 06:31 -34.56184 -58.61180 11174 ft 324 kts 116°
2026-05-07 06:31 -34.57169 -58.58747 10762 ft 320 kts 116°
2026-05-07 06:32 -34.58141 -58.56340 10336 ft 315 kts 116°
2026-05-07 06:32 -34.59092 -58.53979 9897 ft 307 kts 117°
2026-05-07 06:32 -34.59988 -58.51762 9481 ft 279 kts 117°
2026-05-07 06:32 -34.60803 -58.49727 9065 ft 259 kts 117°
2026-05-07 06:33 -34.61575 -58.47767 8675 ft 259 kts 117°
2026-05-07 06:33 -34.62351 -58.45774 8284 ft 263 kts 117°
2026-05-07 06:33 -34.63155 -58.43759 7893 ft 266 kts 118°
2026-05-07 06:33 -34.63970 -58.41733 7526 ft 267 kts 118°
2026-05-07 06:34 -34.64783 -58.39701 7165 ft 268 kts 118°
2026-05-07 06:34 -34.65597 -58.37678 6793 ft 264 kts 118°
2026-05-07 06:34 -34.66369 -58.35758 6435 ft 243 kts 119°
2026-05-07 06:34 -34.67087 -58.33971 6118 ft 228 kts 120°
2026-05-07 06:35 -34.67767 -58.32280 5793 ft 218 kts 120°
2026-05-07 06:35 -34.68419 -58.30654 5483 ft 214 kts 121°
2026-05-07 06:35 -34.69085 -58.29002 5172 ft 221 kts 120°
2026-05-07 06:35 -34.69756 -58.27325 4831 ft 226 kts 121°
2026-05-07 06:36 -34.70175 -58.25547 4377 ft 219 kts 90°
2026-05-07 06:36 -34.69696 -58.23898 4037 ft 200 kts 48°
2026-05-07 06:36 -34.68612 -58.23079 3771 ft 175 kts
2026-05-07 06:36 -34.67472 -58.23151 3563 ft 160 kts 344°
2026-05-07 06:37 -34.66383 -58.23300 3351 ft 153 kts 341°
2026-05-07 06:37 -34.65603 -58.23933 3174 ft 128 kts 297°
2026-05-07 06:37 -34.65101 -58.24833 3016 ft 130 kts 296°
2026-05-07 06:37 -34.64604 -58.25774 2853 ft 134 kts 295°
2026-05-07 06:38 -34.64097 -58.26742 2681 ft 138 kts 296°
2026-05-07 06:38 -34.63580 -58.27729 2497 ft 140 kts 297°
2026-05-07 06:38 -34.63049 -58.28732 2311 ft 141 kts 297°
2026-05-07 06:38 -34.62515 -58.29734 2132 ft 142 kts 298°
2026-05-07 06:39 -34.61970 -58.30736 1939 ft 142 kts 299°
2026-05-07 06:39 -34.61434 -58.31717 1797 ft 136 kts 300°
2026-05-07 06:39 -34.60918 -58.32654 1659 ft 129 kts 301°
2026-05-07 06:39 -34.60439 -58.33518 1495 ft 119 kts 301°
2026-05-07 06:40 -34.59989 -58.34338 1336 ft 115 kts 302°
2026-05-07 06:40 -34.59541 -58.35139 1169 ft 113 kts 302°
2026-05-07 06:40 -34.59096 -58.35918 1015 ft 112 kts 302°
2026-05-07 06:40 -34.58655 -58.36702 881 ft 114 kts 302°
2026-05-07 06:41 -34.58236 -58.37458 720 ft 114 kts 301°
2026-05-07 06:41 -34.57794 -58.38252 509 ft 114 kts 302°
2026-05-07 06:41 -34.57338 -58.39029 335 ft 115 kts 302°
2026-05-07 06:41 -34.56891 -58.39840 193 ft 115 kts 300°
2026-05-07 06:42 -34.56442 -58.40642 50 ft 113 kts 301°
2026-05-07 06:42 -34.56037 -58.41386 23 ft 87 kts 305°
2026-05-07 06:42 -34.55780 -58.41839 21 ft 56 kts 305°
2026-05-07 06:42 -34.55601 -58.42157 24 ft 35 kts 303°
2026-05-07 06:43 -34.55500 -58.42336 27 ft 18 kts 303°
2026-05-07 06:43 -34.55451 -58.42423 25 ft 9 kts 304°
2026-05-07 06:43 -34.55426 -58.42467 26 ft 5 kts 304°
2026-05-07 06:43 -34.55412 -58.42490 25 ft 3 kts 310°
2026-05-07 06:44 -34.55396 -58.42502 23 ft 4 kts 345°
2026-05-07 06:44 -34.55357 -58.42481 23 ft 10 kts 61°
2026-05-07 06:44 -34.55364 -58.42397 23 ft 10 kts 104°
2026-05-07 06:44 -34.55392 -58.42331 26 ft 8 kts 129°
2026-05-07 06:45 -34.55426 -58.42279 25 ft 8 kts 128°
2026-05-07 06:45 -34.55462 -58.42225 26 ft 9 kts 128°
2026-05-07 06:45 -34.55498 -58.42168 25 ft 8 kts 126°
2026-05-07 06:45 -34.55533 -58.42108 23 ft 9 kts 125°
2026-05-07 06:46 -34.55569 -58.42046 25 ft 9 kts 125°
2026-05-07 06:46 -34.55604 -58.41988 23 ft 8 kts 126°
2026-05-07 06:46 -34.55638 -58.41928 26 ft 9 kts 124°
2026-05-07 06:46 -34.55675 -58.41861 23 ft 10 kts 124°
2026-05-07 06:47 -34.55712 -58.41794 24 ft 9 kts 123°
2026-05-07 06:47 -34.55744 -58.41729 24 ft 9 kts 116°
2026-05-07 06:47 -34.55770 -58.41663 26 ft 9 kts 116°
2026-05-07 06:47 -34.55798 -58.41594 24 ft 9 kts 117°
2026-05-07 06:48 -34.55827 -58.41525 24 ft 9 kts 117°
2026-05-07 06:48 -34.55857 -58.41456 24 ft 9 kts 118°
2026-05-07 06:48 -34.55884 -58.41394 25 ft 3 kts 117°
2026-05-07 06:48 -34.55900 -58.41357 23 ft 6 kts 118°
2026-05-07 06:49 -34.55900 -58.41304 23 ft 7 kts 51°
2026-05-07 06:49 -34.55855 -58.41276 23 ft 7 kts
2026-05-07 06:49 -34.55831 -58.41290 23 ft 5 kts 315°
2026-05-07 06:49 -34.55820 -58.41308 23 ft 2 kts 303°
2026-05-07 06:50 -34.55809 -58.41329 25 ft 4 kts 302°
2026-05-07 06:50 -34.55786 -58.41377 25 ft 2 kts 279°
2026-05-07 06:50 -34.55787 -58.41381 25 ft 1 kts 250°
2026-05-07 06:50 -34.55794 -58.41387 26 ft 0 kts 198°
2026-05-07 06:51 -34.55794 -58.41388 26 ft 0 kts 198°
2026-05-07 06:51 -34.55805 -58.41393 24 ft 0 kts 207°
2026-05-07 06:51 -34.55817 -58.41401 24 ft 2 kts 207°
2026-05-07 06:51 -34.55827 -58.41407 23 ft 1 kts 207°
2026-05-07 06:52 -34.55828 -58.41408 23 ft 0 kts 206°